Weather History for LFPG - March, 2014

Change the Weather History Date:

Wednesday, March 19, 2014

  Actual Average (LFPO) Record (LFPO)
Temperature  
Mean Temperature 54 °F -  
Max Temperature 62 °F 56 °F - (-1)
Min Temperature 45 °F 41 °F - (-1)
Degree Days  
Heating Degree Days 12    
Growing Degree Days 4 (Base 50)    
Moisture  
Dew Point 42 °F    
Average Humidity 66    
Maximum Humidity 87    
Minimum Humidity 35    
Precipitation  
Precipitation 0.00 in - - ()
Sea Level Pressure  
Sea Level Pressure 30.30 in    
Wind  
Wind Speed 8 mph ()    
Max Wind Speed 14 mph    
Max Gust Speed -    
Visibility 7.3 miles    
Events      
Averages and records for this station are not official NWS values.
T = Trace of Precipitation, MM = Missing Value Source: Averaged Metar Reports

Daily Weather History Graph

Daily Weather History Graph

Search for Another Location

Airport or City:

Trip Planner

Search our weather history database for the weather conditions in past years. The results will help you decide how hot, cold, wet, or windy it might be!

Date:

Astronomy

Mar. 19, 2014 Rise Set
Actual Time 6:55 AM CET 7:00 PM CET
Civil Twilight 6:23 AM CET 7:32 PM CET
Nautical Twilight 5:46 AM CET 8:09 PM CET
Astronomical Twilight 5:08 AM CET 8:48 PM CET
Moon 10:21 PM CET (3/19) 7:56 AM CET (3/19)
Length of Visible Light 13h 08m
Length of Day
12h 05m
Waning Gibbous, 92% of the Moon is Illuminated
Mar 19
Waning Gibbous
Mar 24
Last Quarter
Mar 30
New
Apr 7
First Quarter
Apr 15
Full

Hourly Weather History & Observations

Time (CET) Temp. Windchill Dew Point Humidity Pressure Visibility Wind Dir Wind Speed Gust Speed Precip Events Conditions
12:00 AM 51 °F - 42 °F 63% 30.27 in 16 mi West 13.8 mph - -   Mostly Cloudy
12:00 AM 50.0 °F - 42.8 °F 76% 30.24 in 6.2 mi West 13.8 mph - N/A   Mostly Cloudy
12:30 AM 50.0 °F - 41.0 °F 71% 30.24 in 6.2 mi West 11.5 mph - N/A   Scattered Clouds
1:00 AM 49 °F - 41 °F 67% 30.27 in 11 mi West 11.5 mph - -   Scattered Clouds
1:00 AM 50.0 °F - 41.0 °F 71% 30.24 in 6.2 mi West 11.5 mph - N/A   Partly Cloudy
1:30 AM 48.2 °F - 42.8 °F 82% 30.27 in 6.2 mi West 11.5 mph - N/A   Partly Cloudy
2:00 AM 48 °F - 42 °F 73% 30.30 in 11 mi West 8.1 mph - -   Mostly Cloudy
2:00 AM 48.2 °F - 42.8 °F 82% 30.27 in 6.2 mi West 8.1 mph - N/A   Mostly Cloudy
2:30 AM 48.2 °F - 41.0 °F 76% 30.27 in 6.2 mi West 11.5 mph - N/A   Partly Cloudy
3:00 AM 47 °F - 42 °F 76% 30.29 in 7 mi West 10.4 mph - -  
3:00 AM 48.2 °F - 42.8 °F 82% 30.27 in - West 10.4 mph - N/A   Clear
3:30 AM 46.4 °F 42.4 °F 41.0 °F 81% 30.27 in 6.2 mi WSW 8.1 mph - N/A   Partly Cloudy
4:00 AM 46 °F - 42 °F 80% 30.30 in 7 mi WSW 8.1 mph - -   Partly Cloudy
4:00 AM 46.4 °F 42.4 °F 41.0 °F 81% 30.27 in 6.2 mi WSW 8.1 mph - N/A   Scattered Clouds
4:30 AM 46.4 °F 42.4 °F 42.8 °F 87% 30.27 in 6.2 mi WSW 8.1 mph - N/A   Partly Cloudy
5:00 AM 46 °F - 42 °F 79% 30.32 in 6 mi WSW 8.1 mph - -   Scattered Clouds
5:00 AM 46.4 °F 42.4 °F 41.0 °F 81% 30.30 in 6.2 mi WSW 8.1 mph - N/A   Partly Cloudy
5:30 AM 46.4 °F 42.4 °F 41.0 °F 81% 30.30 in 5.6 mi West 8.1 mph - N/A   Mostly Cloudy
6:00 AM 46 °F - 42 °F 80% 30.33 in 6 mi WSW 6.9 mph - -   Mostly Cloudy
6:00 AM 46.4 °F 42.9 °F 42.8 °F 87% 30.30 in 5.6 mi WSW 6.9 mph - N/A   Mostly Cloudy
6:30 AM 46.4 °F 43.5 °F 42.8 °F 87% 30.30 in 5.6 mi WSW 5.8 mph - N/A   Mostly Cloudy
7:00 AM 46 °F - 42 °F 79% 30.33 in 6 mi WSW 9.2 mph - -   Mostly Cloudy
7:00 AM 46.4 °F 41.9 °F 41.0 °F 81% 30.30 in 5.6 mi WSW 9.2 mph - N/A   Mostly Cloudy
7:30 AM 46.4 °F 43.5 °F 42.8 °F 87% 30.33 in 5.6 mi West 5.8 mph - N/A   Mostly Cloudy
8:00 AM 47 °F - 42 °F 79% 30.36 in 6 mi West 6.9 mph - -   Mostly Cloudy
8:00 AM 46.4 °F 42.9 °F 42.8 °F 87% 30.33 in 5.6 mi West 6.9 mph - N/A   Mostly Cloudy
8:30 AM 46.4 °F 42.9 °F 42.8 °F 87% 30.36 in 6.2 mi WSW 6.9 mph - N/A   Mostly Cloudy
9:00 AM 48 °F - 42 °F 73% 30.38 in 6 mi WSW 8.1 mph - -   Mostly Cloudy
9:00 AM 48.2 °F - 42.8 °F 82% 30.36 in 6.2 mi WSW 8.1 mph - N/A   Mostly Cloudy
9:30 AM 48.2 °F - 42.8 °F 82% 30.36 in 6.2 mi SW 10.4 mph - N/A   Mostly Cloudy
10:00 AM 49 °F - 43 °F 73% 30.39 in 6 mi WSW 8.1 mph - -   Partly Cloudy
10:00 AM 50.0 °F - 42.8 °F 76% 30.36 in 6.2 mi WSW 8.1 mph - N/A   Mostly Cloudy
10:30 AM 50.0 °F - 42.8 °F 76% 30.36 in 6.2 mi WSW 8.1 mph - N/A   Mostly Cloudy
11:00 AM 52 °F - 42 °F 61% 30.38 in 6 mi SW 9.2 mph - -   Scattered Clouds
11:00 AM 51.8 °F - 42.8 °F 71% 30.36 in 6.2 mi SW 9.2 mph - N/A   Mostly Cloudy
11:30 AM 53.6 °F - 42.8 °F 67% 30.36 in 6.2 mi SW 8.1 mph - N/A   Mostly Cloudy
12:00 PM 53 °F - 43 °F 59% 30.38 in 7 mi SW 9.2 mph - -   Clear
12:00 PM 53.6 °F - 42.8 °F 67% 30.36 in - SW 9.2 mph - N/A   Clear
12:30 PM 55.4 °F - 42.8 °F 63% 30.36 in - SW 8.1 mph - N/A   Clear
1:00 PM 57 °F - 43 °F 48% 30.35 in 9 mi SW 10.4 mph - -   Clear
1:00 PM 57.2 °F - 42.8 °F 59% 30.33 in - SW 10.4 mph - N/A   Clear
1:30 PM 57.2 °F - 42.8 °F 59% 30.33 in - WSW 9.2 mph - N/A   Clear
2:00 PM 59 °F - 42 °F 41% 30.34 in 9 mi WSW 10.4 mph - -   Clear
2:00 PM 59.0 °F - 41.0 °F 51% 30.33 in - WSW 10.4 mph - N/A   Clear
2:30 PM 60.8 °F - 42.8 °F 52% 30.33 in - WSW 8.1 mph - N/A   Clear
3:00 PM 60 °F - 40 °F 36% 30.33 in 9 mi SW 9.2 mph - -   Clear
3:00 PM 60.8 °F - 41.0 °F 48% 30.33 in - SW 8.1 mph - N/A   Clear
3:30 PM 60.8 °F - 41.0 °F 48% 30.30 in - WSW 8.1 mph - N/A   Clear
4:00 PM 61 °F - 42 °F 37% 30.31 in 9 mi WSW 8.1 mph - -   Clear
4:00 PM 60.8 °F - 41.0 °F 48% 30.30 in - SW 6.9 mph - N/A   Clear
4:30 PM 60.8 °F - 41.0 °F 48% 30.30 in - WSW 5.8 mph - N/A   Clear
5:00 PM 61 °F - 40 °F 35% 30.30 in 9 mi WSW 5.8 mph - -   Clear
5:00 PM 60.8 °F - 41.0 °F 48% 30.30 in - West 5.8 mph - N/A   Clear
5:30 PM 60.8 °F - 41.0 °F 48% 30.27 in - Variable 2.3 mph - N/A   Clear
6:00 PM 60 °F - 40 °F 37% 30.29 in 9 mi WSW 3.5 mph - -   Clear
6:00 PM 59.0 °F - 41.0 °F 51% 30.27 in - WSW 3.5 mph - N/A   Clear
6:30 PM 59.0 °F - 41.0 °F 51% 30.27 in - Variable 2.3 mph - N/A   Clear
7:00 PM 58 °F - 42 °F 43% 30.29 in 9 mi South 2.3 mph - -   Clear
7:00 PM 59.0 °F - 41.0 °F 51% 30.27 in - Variable 1.2 mph - N/A   Clear
7:30 PM 57.2 °F - 42.8 °F 59% 30.27 in - SSE 5.8 mph - N/A   Clear
8:00 PM 56 °F - 42 °F 48% 30.29 in 12 mi SSE 5.8 mph - -   Clear
8:00 PM 55.4 °F - 42.8 °F 63% 30.27 in - SSE 5.8 mph - N/A   Clear
8:30 PM 53.6 °F - 42.8 °F 67% 30.27 in - SSE 6.9 mph - N/A   Clear
9:00 PM 54 °F - 42 °F 55% 30.29 in 12 mi SSE 6.9 mph - -   Clear
9:00 PM 53.6 °F - 42.8 °F 67% 30.27 in - South 6.9 mph - N/A   Clear
9:30 PM 51.8 °F - 41.0 °F 67% 30.27 in - SSE 6.9 mph - N/A   Clear
10:00 PM 51 °F - 41 °F 60% 30.28 in 9 mi SE 5.8 mph - -   Clear
10:00 PM 51.8 °F - 41.0 °F 67% 30.27 in - SE 5.8 mph - N/A   Clear
10:30 PM 50.0 °F - 41.0 °F 71% 30.24 in - SE 6.9 mph - N/A   Clear
11:00 PM 50 °F - 41 °F 63% 30.27 in 9 mi SSE 6.9 mph - -  
11:00 PM 50.0 °F - 41.0 °F 71% 30.24 in - SSE 8.1 mph - N/A   Clear
11:30 PM 48.2 °F - 41.0 °F 76% 30.24 in - SSE 5.8 mph - N/A   Clear